Terminal Aerodrome Forecast
Issued by NWS Wichita, KS

Home | Current Version | Previous Version | Graphics & Text | Print | Product List | Glossary On
Versions: 1 2 3 4 5 6 7 8 9 10 11 12 13 14 15
000
FTUS43 KICT 290500
TAFICT
TAF
KICT 290520Z 2906/3006 15007KT P6SM SKC
     FM291600 17012KT P6SM SCT070
     FM300100 13010KT P6SM FEW070=

USA.gov is the U.S. government's official web portal to all federal, state and local government web resources and services.